Change the Weather History Date:

Sunday, January 5, 2014

  Actual Average (KMWL) Record (KMWL)
Temperature  
Mean Temperature 26 °F -  
Max Temperature 36 °F 56 °F 80 °F (2008)
Min Temperature 16 °F 33 °F 18 °F (2014)
Degree Days  
Heating Degree Days 39    
Moisture  
Dew Point 15 °F    
Average Humidity 57    
Maximum Humidity 78    
Minimum Humidity 36    
Precipitation  
Precipitation 0.00 in - - ()
Sea Level Pressure  
Sea Level Pressure 30.23 in    
Wind  
Wind Speed 17 mph (NNW)    
Max Wind Speed 24 mph    
Max Gust Speed 38 mph    
Visibility 10 miles    
Events      
Averages and records for this station are not official NWS values.
T = Trace of Precipitation, MM = Missing Value Source: NWS Daily Summary

Daily Weather History Graph

Daily Weather History Graph

Search for Another Location

Airport or City:

Trip Planner

Search our weather history database for the weather conditions in past years. The results will help you decide how hot, cold, wet, or windy it might be!

Date:

Astronomy

Jan. 05, 2014 Rise Set
Actual Time 7:38 AM CST 5:41 PM CST
Civil Twilight 7:10 AM CST 6:08 PM CST
Nautical Twilight 6:40 AM CST 6:39 PM CST
Astronomical Twilight 6:10 AM CST 7:09 PM CST
Moon 10:36 AM CST (1/5) 10:52 PM CST (1/5)
Length of Visible Light 10h 57m
Length of Day
10h 03m
Waxing Crescent, 25% of the Moon is Illuminated
Jan 5
Waxing Crescent
Jan 7
First Quarter
Jan 15
Full
Jan 23
Last Quarter
Jan 30
New

Hourly Weather History & Observations

Time (CST) Temp. Windchill Dew Point Humidity Pressure Visibility Wind Dir Wind Speed Gust Speed Precip Events Conditions
12:15 AM 33.3 °F 21.8 °F 26.6 °F 77% 29.88 in 10.0 mi NNW 19.6 mph 26.5 mph N/A   Clear
12:35 AM 32.9 °F 22.8 °F 26.8 °F 78% 29.89 in 10.0 mi NNW 15.0 mph 19.6 mph N/A   Clear
12:55 AM 32.9 °F 21.6 °F 26.2 °F 76% 29.90 in 10.0 mi NNW 18.4 mph 26.5 mph N/A   Mostly Cloudy
1:15 AM 31.8 °F 21.8 °F 24.6 °F 75% 29.91 in 10.0 mi NW 13.8 mph 21.9 mph N/A   Overcast
1:35 AM 30.9 °F 18.1 °F 22.8 °F 72% 29.93 in 10.0 mi NW 21.9 mph 28.8 mph N/A   Mostly Cloudy
1:55 AM 30.7 °F 19.2 °F 22.6 °F 72% 29.94 in 10.0 mi NNW 17.3 mph 27.6 mph N/A   Mostly Cloudy
2:15 AM 31.1 °F 20.5 °F 22.5 °F 70% 29.96 in 10.0 mi NW 15.0 mph 24.2 mph N/A   Overcast
2:35 AM 31.5 °F 19.4 °F 22.3 °F 69% 29.96 in 10.0 mi NNW 19.6 mph 31.1 mph N/A   Overcast
2:55 AM 31.5 °F 20.9 °F 21.6 °F 67% 29.97 in 10.0 mi NNW 15.0 mph 32.2 mph N/A   Overcast
3:15 AM 31.6 °F 19.3 °F 21.6 °F 66% 29.99 in 10.0 mi NNW 20.7 mph 33.4 mph N/A   Overcast
3:35 AM 31.1 °F 17.7 °F 20.8 °F 66% 29.99 in 10.0 mi NNW 24.2 mph 29.9 mph N/A   Overcast
3:55 AM 30.9 °F 18.1 °F 20.8 °F 66% 30.00 in 10.0 mi NW 21.9 mph 28.8 mph N/A   Overcast
4:15 AM 30.2 °F 17.1 °F 19.6 °F 65% 30.01 in 10.0 mi NW 21.9 mph 38.0 mph N/A   Overcast
4:35 AM 29.5 °F 16.2 °F 18.9 °F 65% 30.02 in 10.0 mi NW 21.9 mph 28.8 mph N/A   Overcast
4:55 AM 29.1 °F 16.4 °F 19.2 °F 67% 30.03 in 10.0 mi NNW 19.6 mph 27.6 mph N/A   Overcast
5:15 AM 28.9 °F 15.4 °F 19.8 °F 69% 30.04 in 10.0 mi NW 21.9 mph 31.1 mph N/A   Overcast
5:35 AM 27.1 °F 13.1 °F 17.8 °F 68% 30.06 in 10.0 mi NNW 21.9 mph 27.6 mph N/A   Mostly Cloudy
5:55 AM 27.0 °F 14.7 °F 18.3 °F 70% 30.07 in 10.0 mi NNW 16.1 mph 23.0 mph N/A   Overcast
6:15 AM 26.8 °F 15.4 °F 18.5 °F 71% 30.09 in 10.0 mi NNW 13.8 mph 18.4 mph N/A   Overcast
6:35 AM 27.5 °F 14.2 °F 19.0 °F 71% 30.10 in 10.0 mi NW 19.6 mph 28.8 mph N/A   Overcast
6:55 AM 26.2 °F 12.2 °F 17.4 °F 69% 30.11 in 10.0 mi NNW 20.7 mph 31.1 mph N/A   Overcast
7:15 AM 25.7 °F 12.7 °F 17.4 °F 71% 30.13 in 10.0 mi NNW 17.3 mph 29.9 mph N/A   Overcast
7:35 AM 25.3 °F 11.8 °F 17.2 °F 71% 30.15 in 10.0 mi NNW 18.4 mph 27.6 mph N/A   Mostly Cloudy
7:55 AM 25.7 °F 11.2 °F 16.7 °F 69% 30.16 in 10.0 mi NNW 21.9 mph 26.5 mph N/A   Overcast
8:15 AM 26.1 °F 13.6 °F 17.2 °F 69% 30.17 in 10.0 mi NNW 16.1 mph 24.2 mph N/A   Overcast
8:35 AM 26.4 °F 15.0 °F 17.6 °F 69% 30.19 in 10.0 mi NNW 13.8 mph 23.0 mph N/A   Overcast
8:55 AM 27.0 °F 17.3 °F 18.1 °F 69% 30.20 in 10.0 mi NW 10.4 mph 19.6 mph N/A   Overcast
9:15 AM 27.7 °F 17.1 °F 18.1 °F 67% 30.21 in 10.0 mi NNW 12.7 mph 21.9 mph N/A   Overcast
9:35 AM 28.8 °F 17.5 °F 17.6 °F 63% 30.22 in 10.0 mi NNW 15.0 mph 24.2 mph N/A   Scattered Clouds
9:55 AM 29.3 °F 18.2 °F 17.1 °F 60% 30.23 in 10.0 mi NW 15.0 mph 25.3 mph N/A   Scattered Clouds
10:15 AM 30.0 °F 17.9 °F 16.5 °F 57% 30.24 in 10.0 mi NNW 18.4 mph 26.5 mph N/A   Clear
10:35 AM 30.2 °F 17.8 °F 15.8 °F 55% 30.25 in 10.0 mi NNW 19.6 mph 27.6 mph N/A   Clear
10:55 AM 30.6 °F 17.6 °F 15.8 °F 54% 30.25 in 10.0 mi NNW 21.9 mph 29.9 mph N/A   Clear
11:15 AM 32.0 °F 20.5 °F 16.5 °F 53% 30.25 in 10.0 mi NNW 18.4 mph 24.2 mph N/A   Clear
11:35 AM 32.4 °F 21.7 °F 16.5 °F 52% 30.26 in 10.0 mi NNW 16.1 mph 21.9 mph N/A   Clear
11:55 AM 33.1 °F 21.9 °F 16.3 °F 50% 30.26 in 10.0 mi NW 18.4 mph 26.5 mph N/A   Clear
12:15 PM 34.7 °F 25.1 °F 16.5 °F 48% 30.25 in 10.0 mi NW 15.0 mph 25.3 mph N/A   Clear
12:35 PM 35.2 °F 24.1 °F 16.9 °F 47% 30.24 in 10.0 mi NNW 20.7 mph 27.6 mph N/A   Clear
12:55 PM 35.1 °F 24.1 °F 16.7 °F 47% 30.24 in 10.0 mi NW 19.6 mph 25.3 mph N/A   Clear
1:15 PM 35.2 °F 25.8 °F 16.9 °F 47% 30.23 in 10.0 mi NW 15.0 mph 25.3 mph N/A   Clear
1:35 PM 35.6 °F 25.9 °F 16.3 °F 46% 30.24 in 10.0 mi NNW 16.1 mph 26.5 mph N/A   Clear
1:55 PM 35.2 °F 25.0 °F 16.2 °F 46% 30.24 in 10.0 mi NNW 17.3 mph 28.8 mph N/A   Clear
2:15 PM 36.0 °F 25.6 °F 16.2 °F 45% 30.24 in 10.0 mi NNW 18.4 mph 23.0 mph N/A   Clear
2:35 PM 36.0 °F 27.5 °F 15.4 °F 43% 30.26 in 10.0 mi NNW 12.7 mph 23.0 mph N/A   Clear
2:55 PM 36.3 °F 26.4 °F 15.6 °F 43% 30.27 in 10.0 mi NW 17.3 mph 27.6 mph N/A   Clear
3:15 PM 36.1 °F 25.5 °F 14.2 °F 41% 30.27 in 10.0 mi North 19.6 mph 26.5 mph N/A   Clear
3:35 PM 35.6 °F 25.9 °F 13.6 °F 41% 30.28 in 10.0 mi NNW 16.1 mph 26.5 mph N/A   Clear
3:55 PM 35.8 °F 26.5 °F 13.5 °F 40% 30.29 in 10.0 mi North 15.0 mph 20.7 mph N/A   Clear
4:15 PM 35.1 °F 24.8 °F 12.2 °F 39% 30.30 in 10.0 mi NNW 17.3 mph 25.3 mph N/A   Clear
4:35 PM 34.3 °F 23.9 °F 12.0 °F 40% 30.31 in 10.0 mi North 17.3 mph 21.9 mph N/A   Clear
4:55 PM 33.1 °F 23.0 °F 9.7 °F 38% 30.32 in 10.0 mi NNW 15.0 mph 20.7 mph N/A   Clear
5:15 PM 32.0 °F 20.5 °F 7.9 °F 36% 30.33 in 10.0 mi NNW 18.4 mph - N/A   Clear
5:35 PM 31.1 °F 20.1 °F 6.6 °F 36% 30.33 in 10.0 mi North 16.1 mph 21.9 mph N/A   Clear
5:55 PM 29.8 °F 19.3 °F 7.7 °F 39% 30.35 in 10.0 mi NNW 13.8 mph - N/A   Clear
6:15 PM 28.9 °F 19.8 °F 8.2 °F 42% 30.37 in 10.0 mi NNW 10.4 mph - N/A   Clear
6:35 PM 28.2 °F 18.9 °F 9.0 °F 44% 30.38 in 10.0 mi NNW 10.4 mph - N/A   Clear
6:55 PM 27.5 °F 18.0 °F 9.5 °F 47% 30.39 in 10.0 mi NNW 10.4 mph - N/A   Clear
7:15 PM 27.0 °F 18.0 °F 10.2 °F 49% 30.41 in 10.0 mi North 9.2 mph - N/A   Clear
7:35 PM 26.1 °F 16.8 °F 11.3 °F 54% 30.42 in 10.0 mi North 9.2 mph 16.1 mph N/A   Clear
7:55 PM 25.9 °F 13.8 °F 11.5 °F 55% 30.45 in 10.0 mi North 15.0 mph - N/A   Clear
8:15 PM 25.2 °F 10.8 °F 10.6 °F 54% 30.46 in 10.0 mi North 20.7 mph 24.2 mph N/A   Clear
8:35 PM 24.1 °F 11.5 °F 10.4 °F 56% 30.47 in 10.0 mi North 15.0 mph 19.6 mph N/A   Clear
8:55 PM 23.2 °F 12.0 °F 9.3 °F 55% 30.47 in 10.0 mi North 11.5 mph 19.6 mph N/A   Clear
9:15 PM 22.1 °F 12.8 °F 8.6 °F 56% 30.49 in 10.0 mi North 8.1 mph - N/A   Clear
9:35 PM 21.2 °F 11.7 °F 7.9 °F 57% 30.50 in 10.0 mi NNE 8.1 mph 16.1 mph N/A   Clear
9:55 PM 20.1 °F 8.1 °F 7.0 °F 57% 30.51 in 10.0 mi North 11.5 mph - N/A   Clear
10:15 PM 19.4 °F 6.6 °F 5.9 °F 56% 30.54 in 10.0 mi North 12.7 mph - N/A   Clear
10:35 PM 18.5 °F 3.8 °F 4.1 °F 54% 30.56 in 10.0 mi North 16.1 mph 23.0 mph N/A   Clear
10:55 PM 18.1 °F 2.9 °F 3.2 °F 52% 30.57 in 10.0 mi North 17.3 mph 24.2 mph N/A   Clear
11:15 PM 17.4 °F 3.5 °F 4.1 °F 56% 30.57 in 10.0 mi North 13.8 mph - N/A   Clear
11:35 PM 16.9 °F 4.1 °F 5.0 °F 60% 30.57 in 10.0 mi North 11.5 mph - N/A   Clear
11:55 PM 16.7 °F 3.2 °F 4.5 °F 59% 30.58 in 10.0 mi North 12.7 mph 23.0 mph N/A   Clear